RW6A-13 Weather Reports


time (UTC)temp
F
wind
direction
speed
knots
gust
knots
rain 1hr
in
rain 24hr
in
rain mn
in
humidity
%
barometer
mb
20260505201039 51 0 0.0 0.0 0.00 0.00 0.00 87 1009.3
20260505200539 52 45 0.0 0.0 0.00 0.00 0.00 87 1009.3
20260505200039 52 45 0.0 0.0 0.00 0.00 0.00 87 1009.3
20260505195539 52 45 0.0 0.0 0.00 0.00 0.00 86 1009.3
20260505195038 52 45 0.0 0.0 0.00 0.00 0.00 86 1009.3
20260505194539 52 45 0.0 0.0 0.00 0.00 0.00 85 1009.3
20260505194038 53 45 0.0 0.0 0.00 0.00 0.00 85 1009.2
20260505193538 53 45 0.0 0.0 0.00 0.00 0.00 84 1009.3
20260505193039 53 45 0.0 0.0 0.00 0.00 0.00 82 1009.3
20260505192538 53 0 0.0 0.0 0.00 0.00 0.00 82 1009.3
20260505192039 53 0 0.0 0.0 0.00 0.00 0.00 83 1009.3
20260505191539 53 0 0.0 0.0 0.00 0.00 0.00 82 1009.3
20260505191038 53 45 0.0 0.0 0.00 0.00 0.00 80 1009.3
20260505190539 53 0 0.0 0.9 0.00 0.00 0.00 79 1009.2
20260505190038 53 23 0.0 0.0 0.00 0.00 0.00 80 1009.2
20260505185538 53 45 0.0 0.0 0.00 0.00 0.00 80 1009.2
20260505185039 54 90 0.0 0.0 0.00 0.00 0.00 79 1009.2
20260505184538 54 90 0.0 0.0 0.00 0.00 0.00 79 1009.1
20260505184038 54 45 0.0 0.0 0.00 0.00 0.00 79 1009.2
20260505183538 54 90 0.0 0.0 0.00 0.00 0.00 78 1009.1
20260505183037 54 68 0.0 0.0 0.00 0.00 0.00 77 1009.2
20260505182537 54 0 0.0 0.0 0.00 0.00 0.00 78 1009.2
20260505182037 54 90 0.0 0.0 0.00 0.00 0.00 79 1009.3
20260505181535 54 90 0.0 0.0 0.00 0.00 0.00 78 1009.3
20260505181035 54 90 0.0 0.9 0.00 0.00 0.00 78 1009.2
20260505180535 54 90 0.0 0.9 0.00 0.00 0.00 80 1009.3
20260505180035 54 90 0.0 0.0 0.00 0.00 0.00 80 1009.3
20260505175036 55 90 0.0 0.0 0.00 0.00 0.00 80 1009.2
20260505174534 55 90 0.0 0.9 0.00 0.00 0.00 78 1009.2
20260505174033 55 90 0.0 1.7 0.00 0.00 0.00 77 1009.2
20260505173534 55 68 0.0 1.7 0.00 0.00 0.00 77 1009.1
20260505173034 55 45 0.0 1.7 0.00 0.00 0.00 77 1009.1
20260505172533 55 90 0.0 0.9 0.00 0.00 0.00 77 1009.1
20260505172033 55 90 0.0 2.6 0.00 0.00 0.00 76 1009.0
20260505171532 55 90 0.0 1.7 0.00 0.00 0.00 77 1009.0
20260505171031 56 90 0.0 1.7 0.00 0.00 0.00 76 1009.0
20260505170531 56 45 0.0 1.7 0.00 0.00 0.00 76 1009.0
20260505170031 56 90 0.0 1.7 0.00 0.00 0.00 76 1008.9
20260505165531 56 0 0.0 1.7 0.00 0.00 0.00 76 1008.8
20260505165032 56 90 0.0 0.0 0.00 0.00 0.00 77 1008.8
20260505164530 56 90 0.0 1.7 0.00 0.00 0.00 77 1008.7
20260505164030 56 68 0.0 1.7 0.00 0.00 0.00 77 1008.7
20260505163529 56 90 0.0 1.7 0.00 0.00 0.00 76 1008.6
20260505163030 56 90 0.0 1.7 0.00 0.00 0.00 76 1008.6
20260505162530 57 90 0.9 1.7 0.00 0.00 0.00 75 1008.6
20260505162031 57 90 0.0 0.0 0.00 0.01 0.00 73 1008.6
20260505161529 57 90 0.0 0.0 0.00 0.01 0.00 72 1008.5
20260505161029 57 90 0.0 0.0 0.00 0.01 0.00 72 1008.4
20260505160529 57 90 0.0 0.0 0.00 0.02 0.00 71 1008.5
20260505153028 58 90 0.9 2.6 0.00 0.04 0.00 67 1008.4
20260505152528 59 90 0.9 2.6 0.00 0.05 0.00 66 1008.4
20260505152028 59 90 0.9 2.6 0.00 0.05 0.00 67 1008.3
20260505151528 59 90 0.9 1.7 0.00 0.05 0.00 67 1008.4
20260505151029 59 135 0.0 1.7 0.00 0.05 0.00 67 1008.4
20260505150528 59 90 0.0 3.5 0.00 0.07 0.00 67 1008.4
20260505140528 61 45 2.6 7.0 0.00 0.10 0.00 63 1008.3
20260505125027 60 0 0.9 5.2 0.00 0.15 0.00 61 1008.3
20260505124527 61 90 0.0 4.3 0.00 0.15 0.00 64 1008.4
20260505124027 60 90 0.9 5.2 0.00 0.15 0.00 63 1008.4
20260505123527 60 90 1.7 5.2 0.00 0.15 0.00 62 1008.4
20260505123027 61 45 2.6 7.0 0.00 0.15 0.00 62 1008.4
20260505122526 61 45 2.6 6.1 0.00 0.15 0.00 63 1008.4
20260505122027 61 135 0.9 6.1 0.00 0.15 0.00 62 1008.5
20260505121527 61 90 1.7 7.0 0.00 0.15 0.00 61 1008.5
20260505121026 61 113 1.7 5.2 0.00 0.15 0.00 62 1008.6
20260505120526 61 135 1.7 4.3 0.00 0.15 0.00 60 1008.5
20260505120027 61 45 1.7 6.1 0.00 0.15 0.00 60 1008.5
20260505115526 61 0 1.7 4.3 0.00 0.15 0.00 60 1008.5
20260505115026 61 0 0.9 5.2 0.00 0.15 0.00 60 1008.5
20260505114526 62 90 1.7 4.3 0.00 0.15 0.00 60 1008.5
20260505114027 62 45 0.9 4.3 0.00 0.15 0.00 61 1008.5
20260505113526 61 68 2.6 6.1 0.00 0.15 0.00 61 1008.5
20260505113026 61 90 2.6 6.1 0.00 0.15 0.00 60 1008.5
20260505112527 62 135 1.7 7.0 0.00 0.15 0.00 60 1008.5
20260505112026 62 90 0.0 5.2 0.00 0.15 0.00 61 1008.6
20260505111526 61 135 1.7 6.1 0.00 0.15 0.00 62 1008.6
20260505111026 62 90 1.7 4.3 0.00 0.15 0.00 64 1008.6
20260505110526 61 90 2.6 7.0 0.00 0.15 0.00 62 1008.6
20260505102030 60 90 1.7 4.3 0.00 0.15 0.00 67 1008.9
20260505101525 59 90 1.7 4.3 0.00 0.15 0.00 68 1008.9
20260505101025 59 90 1.7 4.3 0.00 0.15 0.00 68 1008.9
20260505100526 59 90 0.0 4.3 0.00 0.15 0.00 68 1009.0
20260505100025 59 113 0.9 4.3 0.00 0.15 0.00 69 1009.0
20260505095525 59 90 0.9 4.3 0.00 0.15 0.00 69 1008.9
20260505095026 59 113 0.9 5.2 0.00 0.15 0.00 69 1009.0
20260505094319 59 90 1.7 5.2 0.00 0.15 0.00 70 1009.0
20260505093819 58 90 1.7 6.1 0.00 0.15 0.00 69 1008.9
20260505093319 58 45 0.9 4.3 0.00 0.15 0.00 71 1009.0
20260505092819 58 45 1.7 5.2 0.00 0.15 0.00 72 1009.0
20260505092319 58 45 0.9 4.3 0.00 0.15 0.00 73 1009.1
20260505091819 57 90 1.7 6.1 0.00 0.15 0.00 72 1009.1
20260505091319 57 45 0.0 3.5 0.00 0.15 0.00 73 1009.1
20260505090819 57 45 0.0 1.7 0.00 0.15 0.00 72 1009.1
20260505090319 57 90 0.0 7.0 0.00 0.15 0.00 73 1009.2
20260505085818 57 90 2.6 7.0 0.00 0.15 0.00 72 1009.1
20260505085319 57 45 1.7 3.5 0.00 0.15 0.00 73 1009.1
20260505084819 57 0 0.9 4.3 0.00 0.15 0.00 73 1009.2
20260505084318 57 135 1.7 4.3 0.00 0.15 0.00 75 1009.2
20260505083818 57 0 0.0 4.3 0.00 0.15 0.00 72 1009.2
20260505083319 57 135 1.7 6.1 0.00 0.15 0.00 72 1009.2
20260505082819 57 45 0.9 4.3 0.00 0.15 0.00 73 1009.3
20260505082318 57 90 0.0 3.5 0.00 0.15 0.00 74 1009.2
20260505081819 57 90 1.7 6.1 0.00 0.15 0.00 73 1009.2
20260505081319 56 90 3.5 7.0 0.00 0.15 0.00 72 1009.2
20260505080818 57 45 1.7 5.2 0.00 0.15 0.00 74 1009.2
20260505080318 56 90 1.7 2.6 0.00 0.15 0.00 75 1009.3
20260505075819 56 45 0.0 0.9 0.00 0.15 0.00 75 1009.3
20260505075318 56 45 0.9 2.6 0.00 0.15 0.00 76 1009.2
20260505074818 56 0 0.0 4.3 0.00 0.15 0.00 76 1009.2
20260505074318 56 90 1.7 4.3 0.00 0.15 0.00 76 1009.3
20260505073818 56 45 0.9 4.3 0.00 0.15 0.00 77 1009.3
20260505073318 56 135 0.0 3.5 0.00 0.15 0.00 78 1009.3
20260505072818 55 315 1.7 4.3 0.00 0.15 0.00 79 1009.3
20260505072317 55 135 0.0 3.5 0.00 0.15 0.00 79 1009.3
20260505071818 55 45 0.0 3.5 0.00 0.15 0.00 80 1009.3
20260505071318 55 90 1.7 5.2 0.00 0.15 0.00 79 1009.3
20260505070817 54 45 0.0 1.7 0.00 0.15 0.00 80 1009.3
20260505070318 54 90 0.0 2.6 0.00 0.15 0.00 80 1009.2
20260505065818 54 0 0.0 1.7 0.00 0.15 0.00 80 1009.2
20260505065318 54 90 0.0 4.3 0.00 0.15 0.00 81 1009.2
20260505064817 54 45 0.0 3.5 0.00 0.15 0.00 81 1009.2
20260505064317 53 45 0.0 1.7 0.00 0.15 0.00 82 1009.3
20260505063818 53 90 0.0 1.7 0.00 0.15 0.00 83 1009.3
20260505063317 53 0 0.0 0.9 0.00 0.15 0.00 83 1009.3
20260505062817 53 45 0.0 1.7 0.00 0.15 0.00 83 1009.3
20260505062317 53 0 0.0 1.7 0.00 0.15 0.00 83 1009.2
20260505061817 52 0 0.0 1.7 0.00 0.15 0.00 83 1009.3
20260505061317 52 68 1.7 2.6 0.00 0.15 0.00 84 1009.3
20260505060817 52 90 0.0 1.7 0.00 0.15 0.00 84 1009.4
20260505060318 52 45 0.9 2.6 0.00 0.15 0.00 84 1009.4
20260505055817 52 45 0.0 1.7 0.00 0.15 0.00 84 1009.4
20260505055317 52 90 0.0 1.7 0.00 0.15 0.00 85 1009.4
20260505054818 51 90 0.9 2.6 0.00 0.15 0.00 85 1009.5
20260505054317 51 90 0.0 1.7 0.00 0.15 0.00 86 1009.4
20260505053817 51 135 0.0 1.7 0.00 0.15 0.00 86 1009.4
20260505053316 51 90 0.0 2.6 0.00 0.15 0.00 85 1009.3
20260505052817 51 68 0.0 3.5 0.00 0.15 0.00 84 1009.3
20260505052317 51 68 0.9 4.3 0.00 0.15 0.00 84 1009.4
20260505051817 51 90 0.0 3.5 0.00 0.15 0.00 84 1009.3
20260505051316 51 0 0.9 2.6 0.00 0.15 0.00 84 1009.3
20260505050817 51 90 1.7 3.5 0.00 0.15 0.00 85 1009.3
20260505050317 51 45 0.9 3.5 0.00 0.15 0.00 86 1009.3
20260505041317 50 0 0.0 0.9 0.00 0.15 0.00 86 1009.0
20260505040816 50 45 0.0 1.7 0.00 0.15 0.00 86 1009.0
20260505040316 50 45 0.0 1.7 0.00 0.15 0.00 86 1009.0
20260505035816 50 90 0.9 3.5 0.00 0.15 0.00 86 1008.9
20260505035316 50 90 0.9 4.3 0.00 0.15 0.00 86 1008.9
20260505034816 49 45 0.9 4.3 0.00 0.15 0.00 86 1008.9
20260505034316 49 90 0.0 4.3 0.00 0.15 0.00 87 1008.9
20260505033816 49 90 0.9 1.7 0.00 0.15 0.00 87 1008.8
20260505033316 49 90 0.0 1.7 0.00 0.15 0.00 88 1008.8
20260505032816 49 45 0.0 0.0 0.00 0.15 0.00 88 1008.7
20260505032315 49 45 0.0 1.7 0.00 0.15 0.00 88 1008.7
20260505031816 49 90 0.0 1.7 0.00 0.15 0.00 87 1008.6
20260505031315 49 0 0.0 3.5 0.00 0.15 0.00 87 1008.6
20260505030815 49 135 0.0 4.3 0.00 0.15 0.00 87 1008.5
20260505030315 49 45 0.9 3.5 0.00 0.15 0.00 87 1008.5
20260505025816 49 45 0.0 3.5 0.00 0.15 0.00 87 1008.5
20260505025315 49 68 0.9 2.6 0.00 0.15 0.00 87 1008.4
20260505024815 49 90 0.9 4.3 0.00 0.15 0.00 87 1008.4
20260505024316 49 90 1.7 5.2 0.00 0.15 0.00 87 1008.4
20260505023816 49 45 0.0 3.5 0.00 0.15 0.00 87 1008.3
20260505023315 49 135 0.9 3.5 0.00 0.15 0.00 87 1008.3
20260505022815 49 45 0.0 2.6 0.00 0.15 0.00 87 1008.2
20260505022315 49 90 0.0 2.6 0.00 0.15 0.00 87 1008.2
20260505021815 49 0 0.9 4.3 0.00 0.15 0.00 87 1008.1
20260505021315 48 68 1.7 4.3 0.00 0.15 0.00 87 1008.0
20260505020815 49 90 0.0 4.3 0.00 0.15 0.00 87 1008.0
20260505020315 49 0 1.7 5.2 0.00 0.15 0.00 87 1008.0
20260505015815 49 90 0.0 4.3 0.00 0.15 0.00 87 1008.0
20260505015315 49 90 1.7 4.3 0.00 0.15 0.00 87 1007.9
20260505014815 49 90 1.7 3.5 0.00 0.15 0.00 87 1007.9
20260505014314 49 90 0.0 1.7 0.00 0.15 0.00 87 1007.9
20260505013815 49 0 0.0 0.9 0.00 0.15 0.00 87 1007.8
20260505013315 49 0 0.0 1.7 0.00 0.15 0.00 87 1007.8
20260505012814 49 45 0.0 1.7 0.00 0.15 0.00 87 1007.8
20260505012314 49 45 0.0 0.0 0.00 0.15 0.00 87 1007.9
20260505011815 49 45 0.0 1.7 0.00 0.15 0.00 87 1007.9
20260505011314 49 90 0.0 3.5 0.00 0.15 0.00 87 1007.9
20260505010815 49 0 0.9 2.6 0.00 0.15 0.00 87 1007.9
20260505010315 49 158 0.0 1.7 0.00 0.15 0.00 86 1007.9
20260505005814 49 45 0.0 1.7 0.00 0.15 0.00 86 1007.9
20260505005314 49 45 0.0 0.0 0.00 0.15 0.00 86 1007.9
20260505004815 49 0 0.0 1.7 0.00 0.15 0.00 85 1007.8
20260505004314 49 45 0.0 0.0 0.00 0.15 0.00 85 1007.8
20260505003814 49 90 0.0 0.0 0.00 0.15 0.00 85 1007.9
20260505003314 49 0 0.0 0.0 0.00 0.15 0.00 85 1007.8
20260505002814 49 90 0.0 1.7 0.00 0.15 0.00 85 1007.8
20260505002314 49 45 0.0 1.7 0.00 0.15 0.00 86 1007.8
20260505001815 49 45 0.0 0.9 0.00 0.15 0.00 86 1007.8
20260505001314 49 45 0.0 0.0 0.00 0.15 0.00 86 1007.8
20260505000814 49 45 0.0 0.9 0.00 0.15 0.00 87 1007.9
20260505000314 49 45 0.0 0.9 0.00 0.15 0.00 87 1007.9
20260504235814 49 45 0.0 0.0 0.00 0.15 0.00 87 1007.9
20260504235314 49 0 0.0 0.9 0.00 0.15 0.00 86 1007.9
20260504234814 49 90 0.0 1.7 0.00 0.15 0.00 86 1008.0
20260504234314 49 90 0.0 2.6 0.00 0.15 0.00 86 1008.0
20260504233814 49 45 0.0 2.6 0.00 0.15 0.00 86 1008.0
20260504233314 49 45 0.0 1.7 0.00 0.15 0.00 86 1008.0
20260504232813 49 0 0.0 1.7 0.00 0.15 0.00 87 1008.1
20260504232314 49 0 0.0 0.0 0.00 0.15 0.00 87 1008.1
20260504231814 49 45 0.0 0.0 0.00 0.15 0.00 87 1008.1
20260504231313 49 45 0.0 0.0 0.00 0.15 0.00 87 1008.2
20260504230813 49 45 0.0 0.0 0.00 0.15 0.00 87 1008.2
20260504230314 49 0 0.0 1.7 0.00 0.15 0.00 87 1008.3
20260504225813 49 45 0.0 0.9 0.00 0.15 0.00 86 1008.2
20260504225313 49 45 0.0 1.7 0.00 0.15 0.00 85 1008.2
20260504224814 49 45 0.0 1.7 0.00 0.15 0.00 85 1008.3
20260504224313 49 45 0.0 3.5 0.00 0.15 0.00 84 1008.2
20260504223813 50 90 0.0 1.7 0.00 0.15 0.00 84 1008.3
20260504223313 50 90 0.0 1.7 0.00 0.15 0.00 84 1008.3
20260504222813 50 45 0.0 1.7 0.00 0.15 0.00 83 1008.2
20260504222313 50 45 0.0 1.7 0.00 0.15 0.00 83 1008.3
20260504221813 50 135 0.0 2.6 0.00 0.15 0.00 84 1008.3
20260504221313 50 45 0.9 2.6 0.00 0.15 0.00 83 1008.3
20260504220813 50 90 0.0 1.7 0.00 0.15 0.00 84 1008.3
20260504220313 50 90 0.0 3.5 0.00 0.15 0.00 84 1008.2
20260504215813 49 45 0.9 2.6 0.00 0.15 0.00 84 1008.3
20260504215312 49 90 0.0 4.3 0.00 0.15 0.00 84 1008.2
20260504214813 49 45 0.9 3.5 0.00 0.15 0.00 84 1008.3
20260504214313 50 45 1.7 4.3 0.00 0.15 0.00 84 1008.2
20260504213812 49 113 0.9 4.3 0.00 0.15 0.00 85 1008.3
20260504213313 49 90 0.0 4.3 0.00 0.15 0.00 85 1008.3
20260504212813 50 90 1.7 3.5 0.00 0.15 0.00 85 1008.3
20260504212312 50 90 1.7 5.2 0.00 0.15 0.00 85 1008.4
20260504211812 50 45 0.0 4.3 0.00 0.15 0.00 84 1008.3
20260504211313 50 90 1.7 5.2 0.00 0.15 0.00 84 1008.4
20260504210812 49 90 0.9 4.3 0.00 0.15 0.00 85 1008.4
20260504210312 49 90 1.7 5.2 0.00 0.15 0.00 85 1008.3
20260504205813 49 90 0.9 3.5 0.00 0.15 0.00 85 1008.3
20260504205312 49 90 1.7 5.2 0.00 0.15 0.00 85 1008.3
20260504204812 49 90 1.7 4.3 0.00 0.15 0.00 86 1008.3
20260504204313 49 45 1.7 6.1 0.00 0.15 0.00 87 1008.3
20260504203812 49 90 1.7 4.3 0.00 0.15 0.00 87 1008.3
20260504203312 49 90 1.7 5.2 0.00 0.15 0.00 88 1008.3
20260504202812 49 45 0.9 4.3 0.00 0.15 0.00 89 1008.3
20260504202312 49 90 1.7 5.2 0.00 0.15 0.00 89 1008.5
20260504201812 49 90 1.7 5.2 0.00 0.15 0.00 90 1008.6